This demonstration page uses our WeatherBlox Daily Observations layout. Learn more.

Left ArrowRight Arrow

Hourly Observations for May 4, 2015

Temp ( °F °C ) Dew Point ( °F °C ) Humidity (%) Winds ( mph kmh ) Pressure ( in mb ) Visibility ( mi km ) Precip ( " mm )
12:53 am 00:53 Mostly Cloudy with Nearby Thunderstorms 64 17.8 44 6.7 48 48 NNE 17 28 29.85 1011 10 16 0.00 0.00
1:17 am 01:17 Mostly Clear 63 17.2 44 6.7 50 50 NNE 17 28 29.88 1012 10 16 0.00 0.00
1:53 am 01:53 Mostly Clear 62 16.7 42 5.6 48 48 NNE 17 28 29.87 1012 10 16 0.00 0.00
2:53 am 02:53 Clear 61 16.1 43 6.1 52 52 NE 25 41 29.87 1011 10 16 0.00 0.00
3:10 am 03:10 Clear with Nearby Thunderstorms 61 16 45 7 55 55 NNE 23 37 29.91 1013 10 16 0.00 0.00
3:22 am 03:22 Partly Cloudy with Thunderstorms 61 16 45 7 55 55 NNE 17 28 29.91 1013 10 16 0.00 0.00
3:37 am 03:37 Mostly Cloudy with Rain 57 13.9 47 8.3 69 69 NE 17 28 29.94 1014 4 6 0.10 2.54
3:53 am 03:53 Cloudy with Nearby Thunderstorms 58 14.4 48 8.9 70 70 NE 8 13 29.94 1014 10 16 0.11 2.79
4:16 am 04:16 Mostly Cloudy with Light Rain 57 14 48 9 72 72 NNE 22 35 29.94 1014 10 16 0.00 0.00
4:53 am 04:53 Mostly Cloudy 57 13.9 47 8.3 69 69 NE 17 28 29.92 1013 10 16 0.01 0.25
5:53 am 05:53 Cloudy 57 13.9 46 7.8 67 67 NE 16 26 29.95 1014 10 16 0.00 0.00
6:53 am 06:53 Cloudy 57 13.9 44 6.7 62 62 NE 15 24 29.98 1015 10 16 0.00 0.00
7:53 am 07:53 Cloudy 56 13.3 43 6.1 62 62 NE 22 35 29.98 1015 10 16 0.00 0.00
8:53 am 08:53 Mostly Sunny 57 13.9 42 5.6 58 58 ENE 20 31 29.98 1015 10 16 0.00 0.00
9:53 am 09:53 Cloudy 57 13.9 43 6.1 60 60 E 9 15 30.06 1018 10 16 0.00 0.00
10:40 am 10:40 Cloudy with Thunderstorms 54 12 46 8 77 77 ENE 13 20 30.09 1019 10 16 0.00 0.00
10:53 am 10:53 Cloudy with Thunderstorms 56 13.3 47 8.3 72 72 ENE 16 26 30.05 1018 10 16 0.01 0.25
11:05 am 11:05 Cloudy with Nearby Thunderstorms 56 13.3 47 8.3 72 72 ENE 16 26 30.09 1019 10 16 0.00 0.00
11:23 am 11:23 Cloudy with Light Rain 57 13.9 47 8.3 69 69 ENE 15 24 30.09 1019 10 16 0.00 0.03
11:53 am 11:53 Mostly Cloudy 57 13.9 48 8.9 72 72 NE 16 26 30.06 1018 10 16 0.00 0.03
12:32 pm 12:32 Cloudy with Light Rain 57 14 48 9 72 72 NE 12 19 30.09 1019 10 16 0.00 0.00
12:53 pm 12:53 Cloudy 56 13.3 48 8.9 75 75 NE 15 24 30.07 1018 10 16 0.00 0.03
1:35 pm 13:35 Cloudy with Light Rain 55 12.8 50 10 83 83 NE 16 26 30.09 1019 10 16 0.00 0.03
1:42 pm 13:42 Cloudy with Light Rain 55 13 50 10 82 82 NE 13 20 30.09 1019 10 16 0.00 0.00
1:49 pm 13:49 Cloudy 55 13 50 10 82 82 NE 15 24 30.09 1019 10 16 0.00 0.03
1:53 pm 13:53 Cloudy 55 12.8 50 10 83 83 NE 14 22 30.08 1019 10 16 0.00 0.03
2:05 pm 14:05 Cloudy 55 12.8 49 9.4 80 80 NE 12 19 30.09 1019 10 16 0.00 0.00
2:40 pm 14:40 Cloudy 57 14 50 10 77 77 ENE 15 24 30.09 1019 10 16 0.00 0.00
2:53 pm 14:53 Cloudy 56 13.3 50 10 81 81 ENE 15 24 30.08 1019 10 16 0.00 0.00
3:53 pm 15:53 Cloudy 56 13.3 51 10.6 84 84 NE 17 28 30.07 1018 10 16 0.00 0.00
4:53 pm 16:53 Cloudy 56 13.3 51 10.6 84 84 NE 16 26 30.05 1018 9 14 0.00 0.00
5:17 pm 17:17 Cloudy 56 13.3 51 10.6 84 84 NNE 15 24 30.06 1018 9 14 0.00 0.00
5:53 pm 17:53 Cloudy 56 13.3 52 11.1 87 87 NE 16 26 30.05 1018 9 14 0.00 0.00
6:53 pm 18:53 Cloudy 56 13.3 52 11.1 87 87 NE 17 28 30.04 1017 8 13 0.00 0.00
7:53 pm 19:53 Cloudy 56 13.3 53 11.7 90 90 ENE 13 20 30.04 1017 8 13 0.00 0.00
8:53 pm 20:53 Cloudy 56 13.3 53 11.7 90 90 ENE 13 20 30.04 1017 8 13 0.00 0.00
9:53 pm 21:53 Cloudy with Mist and Fog 56 13.3 53 11.7 90 90 ENE 7 11 30.09 1019 6 10 0.00 0.00
10:08 pm 22:08 Cloudy with Mist and Fog 55 13 54 12 94 94 ENE 8 13 30.09 1019 6 10 0.00 0.00
10:53 pm 22:53 Cloudy with Mist and Fog 55 12.8 54 12.2 96 96 NE 6 9 30.09 1019 4 6 0.00 0.00
11:11 pm 23:11 Cloudy with Mist and Fog 55 12.8 54 12.2 96 96 NE 10 17 30.09 1019 2 3 0.00 0.00
11:20 pm 23:20 Cloudy with Mist and Fog 55 13 54 12 94 94 NE 10 17 30.09 1019 1 2 0.00 0.00
11:31 pm 23:31 Cloudy with Mist and Fog 55 12.8 54 12.2 96 96 NE 9 15 30.09 1019 1 1 0.00 0.00
11:53 pm 23:53 Mostly Cloudy with Fog 55 12.8 54 12.2 96 96 ENE 8 13 30.08 1019 1 1 0.00 0.00

Powered by AerisWeather